Regional Weather Roundup
Issued by NWS Newport/Morehead, NC

Home | Current Version | Previous Version | Text Only | Print | Product List | Glossary On
Versions: 1 2 3 4 5 6 7 8 9 10 11 12 13 14 15 16 17 18 19 20 21 22 23 24 25 26 27 28 29 30 31 32 33 34 35 36 37 38 39 40 41 42 43 44 45 46 47 48 49 50
000
ASUS42 KMHX 251322
RWRMHX
WEATHER ROUNDUP FOR EASTERN NORTH CAROLINA
NATIONAL WEATHER SERVICE NEWPORT/MOREHEAD CITY NC
900 AM EDT FRI JUL 25 2014

NOTE: "FAIR" INDICATES FEW OR NO CLOUDS BELOW 12,000 FEET
WITH NO SIGNIFICANT WEATHER AND/OR OBSTRUCTIONS TO VISIBILITY

NCZ015>017-031-032-045>047-102-103-251400-
NORTH COAST

CITY           SKY/WX    TMP DP  RH WIND       PRES   REMARKS
EDENTON        MOSUNNY   74  69  85 N8        30.04S
ELIZABETH CITY SUNNY     75  69  81 NW9       30.03R
KITTY HAWK     SUNNY     76  68  77 CALM      30.01S
MANTEO         NOT AVBL

$$

NCZ045>047-081-094-103-104-251400-
CENTRAL COAST

CITY           SKY/WX    TMP DP  RH WIND       PRES   REMARKS
FRISCO         MOSUNNY   77  72  84 VRB5      30.02R
SWANQUARTER      N/A     75 N/A N/A N8        30.00S

$$

NCZ095-097-098-100-101-251400-
SOUTHERN COAST

CITY           SKY/WX    TMP DP  RH WIND       PRES   REMARKS
BEAUFORT       MOSUNNY   75  70  84 N9        30.03S
CEDAR ISLAND     N/A     75 N/A N/A N9G16     30.06S
JACKSONVILLE   CLOUDY    71  68  90 N8        30.04R
NEWPORT        NOT AVBL
PINEY ISLAND   PTSUNNY   73  71  93 N10       30.03S
WILMINGTON     CLOUDY    72  71  97 N9        30.02S FOG


$$

NCZ011>013-027>030-043-044-078>080-089-090>093-098-251400-
COASTAL PLAIN

CITY           SKY/WX    TMP DP  RH WIND       PRES   REMARKS
AHOSKIE        SUNNY     70  66  87 N6        30.06S
CLINTON        CLOUDY    72  69  91 NE5       30.06R
ELIZABETHTOWN  CLOUDY    70  69  98 CALM      30.04S
GOLDSBORO      CLOUDY    70  70 100 NE6       30.04R
GREENVILLE     CLOUDY    70  68  94 NE6       30.07R FOG
HAVELOCK       CLOUDY    71  68  90 N6        30.05R
KENANSVILLE    CLOUDY    70  67  90 N3        30.06R
KINSTON        CLOUDY    70  68  94 N7        30.06R
NEW BERN       CLOUDY    73  68  84 NE8       30.05R
RICHLANDS      CLOUDY    70  66  88 NE7       30.04S
ROANOKE RAPIDS NOT AVBL
ROCKY MOUNT    CLOUDY    72  68  87 N8        30.06R
WASHINGTON     CLOUDY    70  67  90 N5        30.06R
WHITEVILLE     CLOUDY    71  70  97 NE5       30.03R FOG

$$

AMZ130-135-150-152-154-156-158-170-250-252-270-ANZ085-086-088-633-658-670-251400-
MARINE OBSERVATIONS

STATION/POSITION TIME  TEMP    WIND        PRES    WAVE   SWELL
                       AIR SEA DIR/SP/G            HT/PER HT/PER
                 (UTC) (F)     (DEG/KT/KT) (MB)    (FT/S) (FT/S)
CHESAPEAKE LIGHT NOT AVBL
BUOY 44014       1300   77 78  330/ 12/ 14 1015.4    2/ 7   2/ 7
DUCK             1300   74 75  330/ 10/ 10 1015.8
2E DUCK          1300                        N/A     2/ 4
OREGON INLET     1300   76 77  360/  9/ 13 1016.2
BUOY 44095       1300      77                N/A     3/ 7
20E OREGON INLET 1200          340/ 12/ 16   N/A
HATTERAS CG      1300   75 79  350/ 10/ 12 1017.0
DIAMOND BUOY     1300          VRB 12/ 16  1016.0    3/ 7   2/ 7
CAPE LOOKOUT     1300   73      10/  9/ 11 1016.5
BEAUFORT LAB     1300   72 80   10/ 10/ 11 1016.6
30 SE NEW RIVER  1300   76 81   20/ 14/ 16 1016.3    4/ 6   3/ 6
5 SE WRIGHTSVILL 1300   72 81   20/  8/ 10   N/A
BUOY 41002       1155   82 82  240/ 17/ 19 1018.2    5/ 6
BUOY 41004       1300   82 82  250/ 12/ 14 1015.4    4/ 6   3/ 6

$$


USA.gov is the U.S. government's official web portal to all federal, state and local government web resources and services.